Location: Philippsburg
(49.2317°N, 8.4607°E)
Time: 09:20:22
(UTC+00:00)

Daily predictions for brighter satellites

Satellite Brightness Start Highest point End
(mag) Time Altitude Azimuth Time Altitude Azimuth Time Altitude Azimuth
Cosmos 1814 Rocket 4.4 17:04:03 10° S 17:09:00 43° ESE 17:13:56 10° NE
SAR-Lupe-4 3.8 17:06:17 10° SE 17:09:42 46° ENE 17:13:09 10° N
ATLAS 3B R/B 4.1 17:02:31 10° NW 17:09:56 49° WSW 17:16:56 10° S
NOSS 7 (A) 4.5 17:08:34 10° NW 17:11:28 88° NE 17:14:34 10° SE
Cosmos 1125 Rocket 4.2 17:08:00 10° N 17:12:39 32° NE 17:17:18 10° ESE
IRS-1C 4.2 17:08:06 10° SSE 17:13:26 86° WSW 17:18:48 10° NNW
YAOGAN 1 2.7 17:16:45 10° SE 17:20:50 47° ENE 17:24:57 10° N
Cosmos 2123 Rocket 4.0 17:15:22 10° S 17:21:39 76° E 17:27:59 10° NNE
Okean 2 Rocket 3.5 17:18:27 10° N 17:22:35 38° ENE 17:26:40 10° SE
Cosmos 1900 4.4 17:17:47 10° SSW 17:22:52 87° SE 17:27:58 10° NE
NOSS 3-3 (C) 4.5 17:18:43 10° S 17:23:15 32° ESE 17:28:27 10° NE
Okean 1 Rocket 3.6 17:21:58 10° N 17:26:04 36° ENE 17:30:06 10° SE
Spot 4 Rocket 4.2 17:21:13 10° SE 17:26:07 48° ENE 17:31:01 10° N
COSMOS 2428 2.7 17:22:29 10° NNW 17:28:13 67° ENE 17:33:54 10° SE
Cosmos 1980 4.2 17:26:32 10° NNW 17:31:49 38° NE 17:37:03 10° ESE
Sich 1 Rocket 4.1 17:27:51 10° N 17:32:09 40° ENE 17:36:26 10° SE
ARIANE 5 R/B 3.3 17:27:40 10° S 17:32:43 58° WSW 17:37:44 10° NNW
Cosmos 158 Rocket 3.8 17:32:09 10° S 17:36:57 66° ESE 17:41:48 10° NNE
Cosmos 2237 Rocket 2.7 17:32:08 10° NNW 17:37:27 39° NE 17:42:44 10° ESE
Aureole 3 Rocket 3.5 17:33:35 10° N 17:37:32 31° ENE 17:40:40 10° SE
ATLAS 5 CENTAUR R/B 2.5 17:34:49 10° NW 17:39:00 56° SW 17:44:11 10° SSE
Cosmos 192 4.2 17:34:23 10° NNW 17:39:16 73° ENE 17:44:08 10° SSE
SeaSat 1 3.3 17:34:57 10° SSE 17:39:44 54° WSW 17:44:33 10° NW
Cosmos 1378 Rocket 3.4 17:35:51 10° S 17:40:10 83° E 17:44:30 10° N
USA 234 4.5 17:34:41 10° SSE 17:40:51 43° SW 17:47:04 10° WNW
Resurs 01 Rocket 2.1 17:37:09 10° SE 17:41:12 38° ENE 17:45:17 10° N
SKYMED 2 3.5 17:38:41 10° NNE 17:43:04 81° ESE 17:47:24 10° SSW
GP-B 3.4 17:39:45 10° S 17:44:06 72° W 17:48:29 10° N
Cosmos 2219 Rocket 4.0 17:42:02 10° NW 17:47:04 35° WSW 17:52:04 10° S
COSMO-SKYMED 1 2.5 17:43:19 10° NNE 17:47:21 52° E 17:51:22 10° S
Cosmos 2228 4.3 17:45:42 10° NNE 17:48:42 19° ENE 17:49:16 18° ENE
Cosmos 2292 Rocket 3.8 17:46:55 10° SSW 17:49:41 44° WNW 17:52:37 10° N
PSLV R/B 3.4 17:46:56 10° SSE 17:51:00 61° ENE 17:55:04 10° N
NOSS 3-3 (A) 3.8 17:46:50 10° SSW 17:51:51 57° ESE 17:57:35 11° NE
Cosmos 2322 3.9 17:46:43 10° NNW 17:52:27 77° WSW 17:58:09 10° SSE
USA 306 1.1 17:51:31 10° WNW 17:54:24 82° SSW 17:55:03 38° SE
Cosmos 2016 Rocket 4.4 17:48:17 10° NNW 17:54:29 70° W 18:00:43 10° S
Resurs 1-3 3.7 17:50:26 10° S 17:54:43 76° WSW 17:59:03 10° NNW
Cosmos 1025 Rocket 2.9 17:54:13 10° S 17:58:29 72° E 18:02:49 10° NNE
SJ-7 4.0 17:55:05 10° SSE 17:58:47 85° ENE 18:02:29 10° NNW
Cosmos 2285 Rocket 4.0 17:52:59 10° NNW 17:59:25 66° ENE 18:05:45 10° SE
SL-16 R/B 3.5 17:56:15 10° N 18:00:38 22° NE 18:02:27 19° ENE
Cosmos 2227 Rocket 3.5 18:00:24 10° SE 18:03:35 18° ESE 18:03:35 18° ESE
SJ-6B 2.8 18:05:12 13° SE 18:07:58 42° ENE 18:11:15 10° N
NOSS 3-4 (A) 3.9 18:03:13 10° NW 18:09:38 56° NE 18:15:10 19° ESE
NOSS 3-4 (C) 3.9 18:03:28 10° NW 18:09:54 56° NE 18:15:23 19° ESE
SPOT 5 3.7 18:08:21 24° E 18:09:55 29° ENE 18:14:14 10° N
Cosmos 2233 Rocket 4.3 18:04:13 10° NNW 18:10:27 71° W 18:16:42 10° S
CZ-2D R/B 4.0 18:08:48 10° S 18:12:38 57° W 18:16:34 10° NNW
Cosmos 1674 Rocket 4.0 18:10:23 10° SSW 18:14:44 63° WNW 18:19:07 10° N
Cosmos 1315 Rocket 4.4 18:12:55 10° NNW 18:16:25 35° W 18:19:54 10° SSW
Cosmos 1513 Rocket 4.5 18:12:09 10° N 18:18:22 63° ENE 18:24:39 10° SSE
Cosmos 1867 4.3 18:17:41 10° WSW 18:22:59 52° NW 18:27:56 12° NNE
ATLAS 2AS CENTAUR R/B 4.1 18:20:04 10° WNW 18:25:56 28° NNW 18:31:15 12° NE
CZ-4 R/B 3.2 18:28:09 16° NNE 18:28:09 16° NNE 18:29:09 10° N
CZ-4B R/B 4.2 18:26:46 25° NE 18:26:46 25° NE 18:30:41 10° N
Helios 1A Rocket 4.3 18:28:45 18° SSE 18:28:45 18° SSE 18:29:43 10° S
Lacrosse 5 rocket 2.0 18:23:48 10° W 18:27:07 38° NNW 18:28:21 28° NNE
Meteor 1-31 Rocket 4.1 18:32:59 23° NNE 18:32:59 23° NNE 18:34:31 10° N
CZ-4C R/B 2.0 18:28:09 10° SW 18:32:27 69° NW 18:36:09 20° NE
IRAS Rocket 4.2 18:28:58 10° SSE 18:34:35 88° WSW 18:40:15 10° NNW
CARTOSAT-1 4.4 18:30:40 10° S 18:34:45 50° W 18:38:51 10° NNW
CRYOSAT 2 4.3 18:32:43 10° N 18:37:39 88° E 18:42:32 10° S
USA 267 3.8 18:41:48 24° NE 18:45:31 49° N 18:51:45 10° W
Cosmos 1464 Rocket 3.9 18:39:46 10° N 18:46:10 70° E 18:52:27 10° SSE
CSL-04 Debris 4.2 18:44:38 36° SE 18:46:41 58° ENE 18:52:01 10° N
ERS-1 Rocket 4.2 18:48:48 26° NNE 18:48:48 26° NNE 18:51:37 10° N
Cosmos 2297 Rocket 2.1 18:42:55 10° SSW 18:48:36 85° ESE 18:52:37 20° NNE
Cosmos 1607 4.5 18:43:20 10° WSW 18:49:21 55° NW 18:54:10 17° NNE
Cosmos 1570 Rocket 3.9 18:44:18 10° SSW 18:49:34 77° ESE 18:52:48 24° NNE
CSL-04 Rocket 3.5 18:47:26 35° SE 18:49:36 64° ENE 18:54:50 10° N
BREEZE-M DEB (TANK) 4.4 18:46:54 10° W 18:50:53 64° SSW 18:56:52 26° SE
Cosmos 2344 3.9 18:43:48 10° S 18:50:53 36° ESE 18:51:12 36° ESE
Cosmos 1455 Rocket 3.4 18:47:28 10° NNW 18:51:44 63° W 18:55:58 10° S
Cosmos 1975 Rocket 3.9 18:48:01 10° S 18:50:38 35° SSE 18:50:38 35° SSE
DNEPR-1 R/B 3.9 18:48:46 10° NW 18:53:31 62° NE 18:54:12 56° E
PAYLOAD B 4.2 19:05:27 59° ENE 19:05:35 59° ENE 19:11:06 10° N
Cosmos 2208 Rocket 3.8 19:01:33 10° SSW 19:06:45 78° ESE 19:07:29 65° NE
Terra 3.6 19:11:53 20° N 19:11:53 20° N 19:13:31 10° N
NOSS 3-3 (C) 4.3 19:08:25 10° WSW 19:13:41 57° NW 19:16:44 29° NNE
CZ-4B R/B 4.5 19:14:51 53° WNW 19:14:51 53° WNW 19:18:08 10° NNW
Resurs 01 Rocket 3.7 19:13:57 10° SSW 19:17:39 26° W 19:21:23 10° NW
Cosmos 2237 Rocket 3.2 19:16:13 10° NW 19:21:34 43° WSW 19:25:52 15° S
Cosmos 44 Rocket 4.0 19:17:57 10° SSW 19:21:20 45° SSW 19:21:20 45° SSW
Cosmos 773 Rocket 4.1 19:18:52 10° SSW 19:24:07 74° WNW 19:25:06 58° N
Cosmos 2228 3.9 19:21:55 10° NNW 19:25:37 47° WNW 19:25:37 47° WNW
Orbus 7S? 4.2 19:21:53 10° WNW 19:28:58 61° WSW 19:28:58 61° WSW
Cosmos 2150 Rocket 4.5 19:28:24 10° NNW 19:33:27 55° WSW 19:33:58 53° SW
Cosmos 2298 Rocket 4.4 19:29:00 10° NNW 19:34:12 59° WSW 19:34:43 56° SW
SL-16 R/B 2.6 19:39:49 10° NNW 19:44:20 58° NNW 19:44:20 58° NNW
Cosmos 2227 Rocket 3.0 19:41:53 10° SSW 19:45:30 41° SW 19:45:30 41° SW
SPOT 5 3.9 19:47:22 42° WSW 19:47:41 42° W 19:52:27 10° NNW
CZ-4 R/B 4.4 20:03:09 10° NW 20:03:09 10° NW 20:03:14 10° NW
Lacrosse 5 rocket 4.4 20:01:43 10° NW 20:01:47 10° NW 20:01:47 10° NW
CZ-4B R/B 4.4 20:08:36 37° NW 20:08:36 37° NW 20:11:54 10° NNW
BREEZE-M DEB (TANK) 4.1 19:57:29 10° W 20:10:46 63° SW 20:10:46 63° SW
ATLAS 2AS CENTAUR R/B 4.2 20:13:30 10° NW 20:18:40 25° N 20:18:40 25° N
CZ-4C R/B 4.0 20:17:41 10° WNW 20:21:07 24° NNW 20:21:07 24° NNW
USA 267 4.1 20:29:08 43° NNW 20:29:08 43° NNW 20:34:07 10° WNW
Cosmos 2297 Rocket 4.2 20:28:54 10° W 20:33:21 23° NW 20:34:29 22° NNW
